2019-025B (44223 NORAD) Tracking and Keplerian Element Data

This shows tracking and keplerian element data for the satellite.

Feedback or suggestion? Click here.




ElementValue
Catalog44223
Name2019-025B
Epoch Orbit111
Epoch Day131.19002253
Epoch Year2019
RAAN182.5319
Inclination51.6217
Eccentricity0.0024082
Argument of Perigee4.1953
Mean Anonmoly36.1954
Mean Motion16.5134871
Decay Rate0.45414413
L11 44223U 19025B 19131.19002253 .45414413 13098-4 31219-3 0 9999
L22 44223 51.6217 182.5319 0024082 4.1953 36.1954 16.51348710 1113



Live tracking and technical data element details for 2019-025B (NORAD 44223). 2019-025B can be tracked NOW for your location showing map with azimuth and elevation plus other details from your city location.







IsCatalogInMostPopularTable: catalog: 44223, numindb: 285
Update: records affected: 1



GetName: 44223 2019-025B

Hit Count: updated at: Thu, 22 May 2025 02:19:48 GMT